AFL638 UHWW-VTSP

Flight info

Callsign AFL638
Flight time N/A
Altitude 34100
Route SANAR2F SANAR B451 WQG G341 TGO G212 BUMDU W47 ASAVA W45 SQ/K0895S1100 W45 LYA/K0902S1070 W45 ML/K0898S1100 W45 NUPTI R343 WUY R474 TEBAK/K0919F360 R474 LAVOS/N0496F360 R474 VTN/N0489F380 R474 BKK Y8 SAVSA SAVSA1C
Aircraft B77W/H-SDE1E2E3FGHIJ2J3J4J5M1RWXY/LB1D1

Departure

Time 2026-03-28 22:44
Airport Vladivostok International Airport (UHWW)

Arrival

Time N/A
Airport Phuket International Airport (VTSP)
Time Latitude Longitude Altitude Speed Heading
2026-03-28 22:12 43.39676 132.16326 54 ft 0 kts 151°
2026-03-28 22:30 43.39686 132.16319 54 ft 3 kts 160°
2026-03-28 22:30 43.39705 132.16312 54 ft 3 kts 179°
2026-03-28 22:30 43.39725 132.16315 48 ft 3 kts 195°
2026-03-28 22:31 43.39744 132.16324 50 ft 3 kts 207°
2026-03-28 22:31 43.39761 132.16338 53 ft 3 kts 216°
2026-03-28 22:31 43.39777 132.16355 53 ft 3 kts 226°
2026-03-28 22:31 43.39788 132.16374 53 ft 2 kts 239°
2026-03-28 22:32 43.39790 132.16378 53 ft 0 kts 240°
2026-03-28 22:36 43.39785 132.16365 53 ft 9 kts 240°
2026-03-28 22:36 43.39758 132.16285 54 ft 13 kts 260°
2026-03-28 22:37 43.39827 132.16159 48 ft 15 kts 327°
2026-03-28 22:37 43.39876 132.16046 55 ft 15 kts 266°
2026-03-28 22:37 43.39836 132.15916 56 ft 15 kts 243°
2026-03-28 22:37 43.39787 132.15793 57 ft 15 kts 241°
2026-03-28 22:38 43.39737 132.15669 58 ft 15 kts 241°
2026-03-28 22:38 43.39688 132.15545 57 ft 15 kts 241°
2026-03-28 22:38 43.39638 132.15421 60 ft 15 kts 241°
2026-03-28 22:38 43.39587 132.15297 60 ft 15 kts 240°
2026-03-28 22:39 43.39536 132.15174 62 ft 15 kts 240°
2026-03-28 22:39 43.39503 132.15092 63 ft 15 kts 241°
2026-03-28 22:39 43.39454 132.14967 64 ft 15 kts 241°
2026-03-28 22:39 43.39404 132.14843 62 ft 15 kts 241°
2026-03-28 22:40 43.39355 132.14719 66 ft 15 kts 241°
2026-03-28 22:40 43.39305 132.14595 67 ft 15 kts 241°
2026-03-28 22:40 43.39256 132.14470 68 ft 15 kts 241°
2026-03-28 22:40 43.39206 132.14346 69 ft 15 kts 241°
2026-03-28 22:41 43.39157 132.14222 63 ft 15 kts 241°
2026-03-28 22:41 43.39107 132.14097 69 ft 15 kts 241°
2026-03-28 22:41 43.39057 132.13974 64 ft 15 kts 240°
2026-03-28 22:41 43.39005 132.13851 62 ft 15 kts 240°
2026-03-28 22:42 43.38952 132.13725 59 ft 15 kts 240°
2026-03-28 22:42 43.38898 132.13596 64 ft 16 kts 240°
2026-03-28 22:42 43.38845 132.13465 64 ft 16 kts 241°
2026-03-28 22:42 43.38792 132.13329 62 ft 16 kts 244°
2026-03-28 22:43 43.38789 132.13213 56 ft 12 kts 300°
2026-03-28 22:43 43.38809 132.13183 54 ft 0 kts 319°
2026-03-28 22:43 43.38842 132.13150 61 ft 14 kts 327°
2026-03-28 22:43 43.38935 132.13126 58 ft 14 kts 28°
2026-03-28 22:44 43.38998 132.13230 62 ft 15 kts 59°
2026-03-28 22:44 43.39170 132.13656 72 ft 100 kts 61°
2026-03-28 22:44 43.39673 132.14919 69 ft 200 kts 63°
2026-03-28 22:44 43.40381 132.16797 928 ft 224 kts 64°
2026-03-28 22:45 43.40723 132.18850 2384 ft 229 kts 96°
2026-03-28 22:45 43.40187 132.20917 3029 ft 235 kts 118°
2026-03-28 22:45 43.39808 132.23135 3521 ft 250 kts 84°
2026-03-28 22:45 43.40537 132.25317 4161 ft 260 kts 46°
2026-03-28 22:46 43.42110 132.26509 4850 ft 265 kts
2026-03-28 22:46 43.43960 132.26426 5399 ft 270 kts 349°
2026-03-28 22:46 43.45863 132.26619 5923 ft 285 kts 21°
2026-03-28 22:46 43.47439 132.28292 6659 ft 293 kts 56°
2026-03-28 22:47 43.48332 132.30789 7435 ft 292 kts 68°
2026-03-28 22:47 43.48882 132.33481 8046 ft 295 kts 91°
2026-03-28 22:47 43.48416 132.36135 8838 ft 289 kts 124°
2026-03-28 22:47 43.47044 132.38089 9508 ft 285 kts 146°
2026-03-28 22:48 43.45558 132.39963 9947 ft 298 kts 129°
2026-03-28 22:48 43.44255 132.42205 10428 ft 304 kts 140°
2026-03-28 22:48 43.42408 132.43714 10597 ft 320 kts 169°
2026-03-28 22:48 43.40154 132.43767 10814 ft 335 kts 198°
2026-03-28 22:49 43.38058 132.42265 11042 ft 349 kts 226°
2026-03-28 22:49 43.36712 132.39500 11645 ft 353 kts 253°
2026-03-28 22:49 43.36076 132.36264 12195 ft 354 kts 253°
2026-03-28 22:49 43.35107 132.33099 12904 ft 363 kts 246°
2026-03-28 22:50 43.33937 132.30011 13753 ft 367 kts 245°
2026-03-28 22:50 43.32729 132.26916 14657 ft 368 kts 245°
2026-03-28 22:50 43.31534 132.23794 15463 ft 371 kts 246°
2026-03-28 22:50 43.30337 132.20621 16214 ft 375 kts 246°
2026-03-28 22:51 43.29440 132.17290 16758 ft 372 kts 262°
2026-03-28 22:51 43.29093 132.13751 17261 ft 378 kts 265°
2026-03-28 22:51 43.28748 132.10166 18090 ft 379 kts 264°
2026-03-28 22:51 43.28382 132.06573 18862 ft 382 kts 264°
2026-03-28 22:52 43.27999 132.02956 19573 ft 385 kts 264°
2026-03-28 22:52 43.27625 131.99478 20193 ft 389 kts 264°
2026-03-28 22:52 43.27221 131.95784 20819 ft 393 kts 264°
2026-03-28 22:52 43.26809 131.92053 21423 ft 398 kts 264°
2026-03-28 22:53 43.26390 131.88284 22055 ft 401 kts 264°
2026-03-28 22:53 43.25967 131.84492 22677 ft 404 kts 264°
2026-03-28 22:53 43.25539 131.80673 23238 ft 407 kts 264°
2026-03-28 22:53 43.25108 131.76816 23813 ft 410 kts 264°
2026-03-28 22:54 43.24671 131.72936 24367 ft 413 kts 264°
2026-03-28 22:54 43.24229 131.69027 24901 ft 416 kts 264°
2026-03-28 22:54 43.23784 131.65102 25446 ft 418 kts 264°
2026-03-28 22:54 43.23335 131.61148 25956 ft 421 kts 264°
2026-03-28 22:55 43.22884 131.57180 26491 ft 422 kts 264°
2026-03-28 22:55 43.22430 131.53196 26989 ft 424 kts 264°
2026-03-28 22:55 43.21973 131.49203 27445 ft 425 kts 264°
2026-03-28 22:55 43.21545 131.45185 27857 ft 426 kts 267°
2026-03-28 22:56 43.21582 131.41130 28229 ft 426 kts 278°
2026-03-28 22:56 43.21945 131.37106 28661 ft 426 kts 279°
2026-03-28 22:56 43.22308 131.33112 29043 ft 428 kts 278°
2026-03-28 22:56 43.22640 131.29054 29391 ft 430 kts 278°
2026-03-28 22:57 43.22941 131.24967 29749 ft 431 kts 277°
2026-03-28 22:57 43.23226 131.20871 30079 ft 432 kts 277°
2026-03-28 22:57 43.23487 131.16751 30397 ft 434 kts 276°
2026-03-28 22:57 43.23696 131.12621 30703 ft 435 kts 275°
2026-03-28 22:58 43.23882 131.08489 31084 ft 433 kts 275°
2026-03-28 22:58 43.24062 131.04373 31490 ft 431 kts 275°
2026-03-28 22:58 43.24241 131.00274 31911 ft 429 kts 275°
2026-03-28 22:58 43.24417 130.96337 32217 ft 429 kts 275°
2026-03-28 22:59 43.24603 130.92256 32551 ft 428 kts 275°
2026-03-28 22:59 43.24789 130.88186 32884 ft 427 kts 275°
2026-03-28 22:59 43.24974 130.84127 33189 ft 426 kts 275°
2026-03-28 22:59 43.25158 130.80065 33459 ft 426 kts 275°
2026-03-28 23:00 43.25342 130.76017 33759 ft 425 kts 275°
2026-03-28 23:00 43.25523 130.71967 33985 ft 426 kts 275°
2026-03-28 23:00 43.25882 130.63804 34061 ft 428 kts 275°
2026-03-28 23:01 43.26232 130.55755 34089 ft 423 kts 275°
2026-03-28 23:01 43.26577 130.47690 34080 ft 422 kts 275°
2026-03-28 23:02 43.26916 130.39639 34090 ft 422 kts 275°
2026-03-28 23:02 43.27247 130.31584 34080 ft 423 kts 274°
2026-03-28 23:03 43.27575 130.23525 34080 ft 423 kts 274°
2026-03-28 23:03 43.27898 130.15442 34074 ft 424 kts 274°
2026-03-28 23:04 43.28213 130.07401 34079 ft 425 kts 274°
2026-03-28 23:04 43.28520 129.99453 34077 ft 425 kts 274°
2026-03-28 23:05 43.28826 129.91345 34073 ft 425 kts 274°
2026-03-28 23:05 43.29129 129.83227 34068 ft 426 kts 274°
2026-03-28 23:06 43.29728 129.75147 34065 ft 425 kts 281°
2026-03-28 23:06 43.30905 129.67183 34060 ft 425 kts 281°
2026-03-28 23:07 43.32052 129.59210 34053 ft 426 kts 281°
2026-03-28 23:07 43.33184 129.51234 34049 ft 425 kts 281°
2026-03-28 23:08 43.34306 129.43241 34050 ft 426 kts 281°
2026-03-28 23:08 43.35418 129.35295 34047 ft 427 kts 281°
2026-03-28 23:09 43.36537 129.27266 34035 ft 427 kts 281°
2026-03-28 23:09 43.37646 129.19249 34028 ft 427 kts 281°
2026-03-28 23:10 43.38756 129.11206 34022 ft 428 kts 280°
2026-03-28 23:10 43.39853 129.03159 34026 ft 428 kts 280°
2026-03-28 23:11 43.40891 128.95303 34014 ft 429 kts 280°
2026-03-28 23:11 43.41950 128.87221 34022 ft 429 kts 280°
2026-03-28 23:12 43.43005 128.79131 34019 ft 430 kts 279°
2026-03-28 23:12 43.44057 128.71034 34003 ft 430 kts 279°
2026-03-28 23:13 43.45104 128.62929 34008 ft 430 kts 279°
2026-03-28 23:13 43.46146 128.54816 33983 ft 431 kts 279°
2026-03-28 23:14 43.47184 128.46701 33976 ft 430 kts 279°
2026-03-28 23:14 43.48213 128.38597 33970 ft 429 kts 279°
2026-03-28 23:15 43.49237 128.30498 33968 ft 429 kts 279°
2026-03-28 23:15 43.50282 128.22403 33960 ft 429 kts 279°
2026-03-28 23:16 43.51360 128.14317 33949 ft 429 kts 279°
2026-03-28 23:16 43.52429 128.06217 33937 ft 429 kts 279°
2026-03-28 23:17 43.53818 127.95592 33938 ft 429 kts 279°
2026-03-28 23:18 43.55041 127.86171 33932 ft 430 kts 279°
2026-03-28 23:18 43.56087 127.78049 33925 ft 430 kts 279°
2026-03-28 23:19 43.57118 127.69923 33921 ft 430 kts 279°
2026-03-28 23:19 43.58142 127.61786 33910 ft 431 kts 279°
2026-03-28 23:20 43.59165 127.53631 33903 ft 431 kts 279°
2026-03-28 23:20 43.60175 127.45522 33894 ft 431 kts 279°
2026-03-28 23:21 43.61184 127.37373 33898 ft 431 kts 279°
2026-03-28 23:22 43.63128 127.21033 33877 ft 431 kts 278°
2026-03-28 23:22 43.64445 127.08744 33880 ft 431 kts 277°
2026-03-28 23:23 43.65324 127.00529 33867 ft 433 kts 277°
2026-03-28 23:23 43.66180 126.92501 33873 ft 432 kts 277°
2026-03-28 23:24 43.67059 126.84289 33872 ft 432 kts 277°
2026-03-28 23:24 43.67930 126.76069 33862 ft 432 kts 277°
2026-03-28 23:25 43.69082 126.65083 33860 ft 431 kts 277°
2026-03-28 23:26 43.69930 126.56937 33859 ft 431 kts 277°
2026-03-28 23:26 43.70918 126.47354 33848 ft 430 kts 277°
2026-03-28 23:27 43.71757 126.39160 33852 ft 430 kts 277°
2026-03-28 23:27 43.72450 126.32357 33856 ft 430 kts 277°
2026-03-28 23:28 43.73278 126.24171 33843 ft 430 kts 277°
2026-03-28 23:28 43.74098 126.15987 33843 ft 429 kts 277°
2026-03-28 23:29 43.74911 126.07812 33834 ft 429 kts 277°
2026-03-28 23:29 43.75456 126.02347 33832 ft 428 kts 277°
2026-03-28 23:30 43.77147 125.83420 33837 ft 428 kts 271°
2026-03-28 23:33 43.74743 125.38274 33832 ft 429 kts 266°
2026-03-28 23:34 43.73403 125.14983 33833 ft 429 kts 266°
2026-03-28 23:35 43.72842 125.05426 33834 ft 429 kts 266°
2026-03-28 23:35 43.72361 124.97350 33839 ft 429 kts 266°
2026-03-28 23:36 43.71866 124.89144 33830 ft 428 kts 266°
2026-03-28 23:36 43.71365 124.80958 33832 ft 427 kts 266°
2026-03-28 23:37 43.70860 124.72784 33834 ft 426 kts 266°
2026-03-28 23:38 43.69835 124.56508 33835 ft 424 kts 266°
2026-03-28 23:38 43.69317 124.48397 33832 ft 423 kts 266°
2026-03-28 23:39 43.68793 124.40310 33840 ft 421 kts 266°
2026-03-28 23:40 43.68008 124.28227 33844 ft 420 kts 266°
2026-03-28 23:40 43.67542 124.20236 33845 ft 419 kts 267°
2026-03-28 23:41 43.67092 124.12194 33842 ft 420 kts 267°
2026-03-28 23:41 43.66401 124.00137 33893 ft 420 kts 267°
2026-03-28 23:42 43.65935 123.92230 33951 ft 422 kts 267°
2026-03-28 23:42 43.65454 123.84209 33944 ft 420 kts 266°
2026-03-28 23:43 43.64968 123.76171 33945 ft 419 kts 266°
2026-03-28 23:44 43.64228 123.64128 33969 ft 420 kts 266°
2026-03-28 23:44 43.63730 123.56093 33958 ft 421 kts 266°
2026-03-28 23:45 43.63222 123.48035 33960 ft 422 kts 266°
2026-03-28 23:45 43.62707 123.39936 33959 ft 425 kts 265°
2026-03-28 23:46 43.61650 123.23604 33976 ft 431 kts 264°
2026-03-28 23:47 43.61141 123.15355 33968 ft 432 kts 265°
2026-03-28 23:47 43.60734 123.07086 33969 ft 432 kts 265°
2026-03-28 23:48 43.60132 122.94856 33969 ft 430 kts 265°
2026-03-28 23:50 43.58174 122.58100 33978 ft 426 kts 265°
2026-03-28 23:51 43.57722 122.49956 33980 ft 426 kts 265°
2026-03-28 23:51 43.57268 122.41815 33980 ft 425 kts 265°
2026-03-28 23:52 43.56807 122.33684 33990 ft 425 kts 265°
2026-03-28 23:52 43.56301 122.25580 33984 ft 424 kts 261°
2026-03-28 23:53 43.53211 122.14206 33992 ft 427 kts 240°
2026-03-28 23:53 43.51560 122.10866 33997 ft 427 kts 237°
2026-03-28 23:54 43.44606 121.97656 33990 ft 430 kts 237°
2026-03-28 23:55 43.35861 121.80932 33994 ft 431 kts 237°
2026-03-28 23:56 43.32383 121.74275 33999 ft 432 kts 237°
2026-03-28 23:56 43.28875 121.67579 33998 ft 432 kts 237°
2026-03-28 23:57 43.25361 121.60890 34001 ft 432 kts 237°
2026-03-28 23:57 43.21838 121.54201 33992 ft 433 kts 237°
2026-03-28 23:58 43.18306 121.47507 33991 ft 433 kts 236°
2026-03-28 23:58 43.14785 121.40847 33991 ft 433 kts 236°
2026-03-28 23:59 43.11244 121.34168 33991 ft 434 kts 236°
2026-03-28 23:59 43.07700 121.27490 33990 ft 434 kts 236°
2026-03-29 00:00 43.04145 121.20813 33999 ft 434 kts 236°
2026-03-29 00:01 42.95214 121.04112 34007 ft 436 kts 236°
2026-03-29 00:02 42.89897 120.94209 34021 ft 436 kts 236°
2026-03-29 00:03 42.84537 120.84260 34016 ft 436 kts 236°
2026-03-29 00:03 42.80938 120.77598 34012 ft 437 kts 236°
2026-03-29 00:04 42.77329 120.70927 34021 ft 437 kts 236°
2026-03-29 00:04 42.73707 120.64254 34009 ft 438 kts 236°
2026-03-29 00:05 42.70077 120.57579 34021 ft 439 kts 236°
2026-03-29 00:05 42.64636 120.47603 34020 ft 440 kts 236°
2026-03-29 00:06 42.60979 120.40915 34019 ft 441 kts 236°
2026-03-29 00:08 42.48093 120.17466 34026 ft 445 kts 236°
2026-03-29 00:08 42.45006 120.11882 34021 ft 445 kts 236°
2026-03-29 00:09 42.35771 119.95221 34026 ft 448 kts 236°
2026-03-29 00:10 42.31393 119.87357 34022 ft 448 kts 236°
2026-03-29 00:10 42.27645 119.80639 34029 ft 448 kts 236°
2026-03-29 00:11 42.23888 119.73926 34027 ft 448 kts 236°
2026-03-29 00:12 42.14506 119.57214 34024 ft 446 kts 236°
2026-03-29 00:13 42.10757 119.50562 34038 ft 445 kts 236°
2026-03-29 00:14 42.03280 119.37341 34048 ft 445 kts 236°
2026-03-29 00:14 41.99540 119.30746 34048 ft 444 kts 236°
2026-03-29 00:15 41.95785 119.24142 34049 ft 445 kts 236°
2026-03-29 00:15 41.90763 119.15333 34054 ft 447 kts 236°
2026-03-29 00:16 41.86328 119.07569 34047 ft 449 kts 236°
2026-03-29 00:16 41.82518 119.00924 34046 ft 449 kts 236°
2026-03-29 00:17 41.78793 118.94440 34052 ft 448 kts 236°
2026-03-29 00:17 41.74986 118.87820 34055 ft 447 kts 236°
2026-03-29 00:18 41.71824 118.82337 34055 ft 447 kts 236°
2026-03-29 00:18 41.68023 118.75756 34058 ft 447 kts 236°
2026-03-29 00:19 41.64221 118.69191 34048 ft 446 kts 236°
2026-03-29 00:19 41.60418 118.62634 34058 ft 446 kts 236°
2026-03-29 00:20 41.56643 118.56137 34057 ft 444 kts 236°
2026-03-29 00:20 41.52850 118.49627 34049 ft 444 kts 236°
2026-03-29 00:21 41.49130 118.43050 34050 ft 442 kts 240°
2026-03-29 00:21 41.45937 118.36067 34057 ft 441 kts 242°
2026-03-29 00:22 41.42754 118.29070 34058 ft 441 kts 242°
2026-03-29 00:22 41.39546 118.22080 34052 ft 442 kts 242°
2026-03-29 00:23 41.36330 118.15102 34056 ft 442 kts 242°
2026-03-29 00:23 41.33105 118.08126 34044 ft 443 kts 242°
2026-03-29 00:24 41.29870 118.01151 34031 ft 443 kts 242°
2026-03-29 00:24 41.26678 117.94283 34028 ft 443 kts 242°
2026-03-29 00:25 41.23441 117.87332 34024 ft 442 kts 242°
2026-03-29 00:25 41.20230 117.80443 34022 ft 442 kts 242°
2026-03-29 00:26 41.16992 117.73516 34028 ft 441 kts 242°
2026-03-29 00:26 41.13752 117.66603 34027 ft 441 kts 242°
2026-03-29 00:27 41.10505 117.59690 34034 ft 441 kts 242°
2026-03-29 00:27 41.07257 117.52788 34033 ft 441 kts 242°
2026-03-29 00:28 41.03524 117.46303 34027 ft 450 kts 227°
2026-03-29 00:28 40.98259 117.41644 34020 ft 466 kts 208°
2026-03-29 00:29 40.92198 117.38625 34029 ft 470 kts 206°
2026-03-29 00:29 40.86050 117.35621 34023 ft 471 kts 207°
2026-03-29 00:30 40.79925 117.32523 34019 ft 472 kts 207°
2026-03-29 00:30 40.73942 117.29116 34005 ft 460 kts 219°
2026-03-29 00:31 40.71492 117.26491 34020 ft 450 kts 231°
2026-03-29 00:31 40.69492 117.23370 34028 ft 443 kts 240°
2026-03-29 00:31 40.66657 117.16275 34018 ft 438 kts 248°
2026-03-29 00:32 40.63915 117.09075 34017 ft 441 kts 248°
2026-03-29 00:32 40.61116 117.01860 34020 ft 443 kts 247°
2026-03-29 00:33 40.58812 116.95984 34014 ft 443 kts 247°
2026-03-29 00:33 40.55526 116.87636 34015 ft 441 kts 247°
2026-03-29 00:34 40.52709 116.80494 34012 ft 439 kts 247°
2026-03-29 00:34 40.49899 116.73375 34011 ft 438 kts 248°
2026-03-29 00:35 40.47096 116.66298 34024 ft 436 kts 248°
2026-03-29 00:35 40.44289 116.59233 34011 ft 435 kts 248°
2026-03-29 00:36 40.41489 116.52192 34022 ft 435 kts 248°
2026-03-29 00:36 40.39159 116.46350 34012 ft 435 kts 248°
2026-03-29 00:37 40.34438 116.34691 34025 ft 437 kts 245°
2026-03-29 00:38 40.30853 116.28174 34017 ft 446 kts 237°
2026-03-29 00:38 40.27493 116.23036 34020 ft 447 kts 236°
2026-03-29 00:39 40.22766 116.15824 34015 ft 446 kts 237°
2026-03-29 00:39 40.18738 116.09651 34017 ft 445 kts 237°
2026-03-29 00:40 40.15393 116.04515 34017 ft 446 kts 237°
2026-03-29 00:40 40.10766 115.97424 34015 ft 445 kts 237°
2026-03-29 00:41 40.06775 115.91317 34029 ft 445 kts 237°
2026-03-29 00:41 40.02740 115.85163 34014 ft 447 kts 237°
2026-03-29 00:42 39.98699 115.79011 34006 ft 447 kts 237°
2026-03-29 00:42 39.92634 115.69782 34019 ft 447 kts 237°
2026-03-29 00:43 39.88586 115.63652 34023 ft 445 kts 237°
2026-03-29 00:43 39.85909 115.59614 34032 ft 445 kts 237°
2026-03-29 00:44 39.80544 115.51491 34016 ft 444 kts 237°
2026-03-29 00:44 39.76638 115.45304 34010 ft 438 kts 242°
2026-03-29 00:45 39.72696 115.36291 34034 ft 428 kts 250°
2026-03-29 00:46 39.69534 115.28236 34018 ft 428 kts 250°
2026-03-29 00:46 39.66819 115.21363 34021 ft 427 kts 250°
2026-03-29 00:47 39.64096 115.14511 34026 ft 426 kts 249°
2026-03-29 00:48 39.55962 114.94149 34021 ft 425 kts 250°
2026-03-29 00:49 39.53704 114.88511 34025 ft 423 kts 250°
2026-03-29 00:49 39.51002 114.81794 34031 ft 422 kts 250°
2026-03-29 00:50 39.46474 114.70543 34033 ft 422 kts 250°
2026-03-29 00:50 39.43774 114.63861 34023 ft 421 kts 250°
2026-03-29 00:51 39.41061 114.57160 34048 ft 419 kts 250°
2026-03-29 00:52 39.35607 114.43819 34062 ft 419 kts 249°
2026-03-29 00:52 39.32866 114.37158 34059 ft 420 kts 250°
2026-03-29 00:53 39.30115 114.30487 34053 ft 420 kts 249°
2026-03-29 00:53 39.27396 114.23843 34049 ft 422 kts 249°
2026-03-29 00:54 39.24331 114.17371 34049 ft 435 kts 235°
2026-03-29 00:54 39.22032 114.14744 34059 ft 449 kts 226°
2026-03-29 00:54 39.19362 114.12561 34056 ft 463 kts 217°
2026-03-29 00:55 39.16287 114.11100 34075 ft 477 kts 206°
2026-03-29 00:55 39.13073 114.09981 34050 ft 480 kts 205°
2026-03-29 00:55 39.06583 114.07859 34064 ft 481 kts 205°
2026-03-29 00:56 39.02249 114.06378 34062 ft 481 kts 206°
2026-03-29 00:57 38.90499 114.02216 34050 ft 479 kts 206°
2026-03-29 00:58 38.74554 113.96549 34061 ft 477 kts 206°
2026-03-29 00:58 38.68161 113.94314 34063 ft 475 kts 207°
2026-03-29 00:59 38.61792 113.92068 34030 ft 475 kts 207°
2026-03-29 00:59 38.57583 113.90592 34017 ft 472 kts 206°
2026-03-29 01:00 38.49135 113.87641 34065 ft 474 kts 207°
2026-03-29 01:00 38.42770 113.85420 34056 ft 474 kts 206°
2026-03-29 01:01 38.37441 113.83561 34065 ft 475 kts 207°
2026-03-29 01:02 38.26812 113.79879 34064 ft 477 kts 206°
2026-03-29 01:02 38.17216 113.76568 34061 ft 473 kts 207°
2026-03-29 01:03 38.11930 113.74742 34077 ft 475 kts 206°
2026-03-29 01:04 37.98062 113.69978 34065 ft 478 kts 206°
2026-03-29 01:04 37.91645 113.67782 34080 ft 478 kts 206°
2026-03-29 01:05 37.88433 113.66685 34082 ft 478 kts 206°
2026-03-29 01:05 37.78862 113.63417 34077 ft 476 kts 206°
2026-03-29 01:06 37.73557 113.61611 34075 ft 475 kts 207°
2026-03-29 01:06 37.67188 113.59444 34084 ft 473 kts 207°
2026-03-29 01:08 37.50314 113.53722 34089 ft 470 kts 207°
2026-03-29 01:09 37.35589 113.48744 34095 ft 470 kts 207°
2026-03-29 01:09 37.29273 113.46619 34090 ft 469 kts 207°
2026-03-29 01:10 37.25056 113.45202 34106 ft 469 kts 207°
2026-03-29 01:10 37.16651 113.42378 34098 ft 468 kts 207°
2026-03-29 01:11 37.10366 113.40274 34104 ft 468 kts 207°
2026-03-29 01:11 37.04074 113.38168 34105 ft 467 kts 207°
2026-03-29 01:12 36.97796 113.36074 34103 ft 466 kts 207°
2026-03-29 01:12 36.91537 113.33989 34085 ft 465 kts 207°
2026-03-29 01:13 36.85296 113.31914 34100 ft 464 kts 207°
2026-03-29 01:14 36.75948 113.28810 34082 ft 463 kts 207°
2026-03-29 01:14 36.69723 113.26748 34081 ft 463 kts 207°
2026-03-29 01:15 36.63529 113.24699 34091 ft 463 kts 207°
2026-03-29 01:15 36.54204 113.21618 34079 ft 462 kts 207°
2026-03-29 01:16 36.44917 113.18563 34087 ft 459 kts 207°
2026-03-29 01:17 36.38732 113.16529 34091 ft 460 kts 207°
2026-03-29 01:17 36.33595 113.14843 34088 ft 460 kts 207°
2026-03-29 01:18 36.26345 113.12467 34088 ft 460 kts 207°
2026-03-29 01:18 36.20399 113.09908 34088 ft 446 kts 215°
2026-03-29 01:19 36.12847 113.05887 34082 ft 446 kts 215°
2026-03-29 01:19 36.06166 113.02376 34086 ft 447 kts 214°
2026-03-29 01:20 36.00519 112.99431 34077 ft 448 kts 214°
2026-03-29 01:20 35.94776 112.96441 34075 ft 448 kts 214°
2026-03-29 01:21 35.89070 112.93480 34080 ft 448 kts 214°
2026-03-29 01:21 35.83333 112.90505 34085 ft 446 kts 214°
2026-03-29 01:22 35.77605 112.87535 34082 ft 446 kts 214°
2026-03-29 01:23 35.66160 112.81574 34086 ft 447 kts 214°
2026-03-29 01:24 35.54692 112.75619 34079 ft 447 kts 214°
2026-03-29 01:24 35.48969 112.72632 34081 ft 448 kts 214°
2026-03-29 01:25 35.37511 112.66667 34080 ft 449 kts 213°
2026-03-29 01:26 35.32734 112.64187 34081 ft 449 kts 213°
2026-03-29 01:26 35.31758 112.63681 34082 ft 449 kts 213°